TAM3923 SBRJ-SBSP

Flight info

Callsign TAM3923
Flight time 0h 44m
Altitude 34000
Route NAXOP UZ45 IBDAL
Aircraft A319/M-SDE3FGHIRWY/LB1

Departure

Time 2026-05-04 18:26
Airport Santos Dumont Airport (SBRJ)

Arrival

Time 2026-05-04 19:10
Airport Congonhas–Deputado Freitas Nobre Airport (SBSP)
Time Latitude Longitude Altitude Speed Heading
2026-05-04 18:04 -22.91245 -43.16583 22 ft 0 kts 267°
2026-05-04 18:19 -22.91245 -43.16572 22 ft 3 kts 267°
2026-05-04 18:19 -22.91244 -43.16552 22 ft 3 kts 269°
2026-05-04 18:19 -22.91244 -43.16532 22 ft 3 kts 276°
2026-05-04 18:20 -22.91248 -43.16513 22 ft 3 kts 311°
2026-05-04 18:20 -22.91259 -43.16505 24 ft 0 kts 346°
2026-05-04 18:22 -22.91255 -43.16506 24 ft 3 kts 346°
2026-05-04 18:22 -22.91239 -43.16511 22 ft 0 kts 346°
2026-05-04 18:22 -22.91228 -43.16512 25 ft 6 kts 353°
2026-05-04 18:22 -22.91168 -43.16516 23 ft 10 kts 356°
2026-05-04 18:23 -22.91097 -43.16528 24 ft 11 kts 347°
2026-05-04 18:23 -22.91013 -43.16539 22 ft 13 kts 356°
2026-05-04 18:23 -22.90916 -43.16546 24 ft 14 kts 356°
2026-05-04 18:23 -22.90821 -43.16533 22 ft 14 kts 56°
2026-05-04 18:24 -22.90810 -43.16426 23 ft 14 kts 86°
2026-05-04 18:24 -22.90757 -43.16374 29 ft 12 kts 355°
2026-05-04 18:24 -22.90659 -43.16383 29 ft 16 kts 356°
2026-05-04 18:24 -22.90544 -43.16391 24 ft 13 kts 357°
2026-05-04 18:25 -22.90485 -43.16371 26 ft 9 kts 57°
2026-05-04 18:25 -22.90496 -43.16316 25 ft 4 kts 166°
2026-05-04 18:25 -22.90500 -43.16317 25 ft 0 kts 178°
2026-05-04 18:25 -22.90673 -43.16307 26 ft 71 kts 176°
2026-05-04 18:26 -22.91473 -43.16249 104 ft 145 kts 172°
2026-05-04 18:26 -22.92464 -43.16098 844 ft 147 kts 155°
2026-05-04 18:26 -22.93287 -43.15401 1424 ft 159 kts 133°
2026-05-04 18:26 -22.94114 -43.14495 1816 ft 180 kts 129°
2026-05-04 18:27 -22.95053 -43.13466 2171 ft 205 kts 131°
2026-05-04 18:27 -22.96167 -43.12356 2691 ft 227 kts 135°
2026-05-04 18:27 -22.97387 -43.11210 3496 ft 237 kts 136°
2026-05-04 18:27 -22.98747 -43.10128 4250 ft 250 kts 157°
2026-05-04 18:28 -23.00467 -43.09929 5068 ft 258 kts 193°
2026-05-04 18:28 -23.02111 -43.10803 5611 ft 272 kts 221°
2026-05-04 18:28 -23.03599 -43.12090 6646 ft 273 kts 223°
2026-05-04 18:28 -23.05044 -43.13431 7697 ft 273 kts 224°
2026-05-04 18:29 -23.06490 -43.14791 8684 ft 276 kts 223°
2026-05-04 18:29 -23.07963 -43.16152 9695 ft 279 kts 222°
2026-05-04 18:29 -23.09476 -43.17509 10465 ft 291 kts 221°
2026-05-04 18:29 -23.11107 -43.18948 10895 ft 311 kts 221°
2026-05-04 18:30 -23.14573 -43.21962 12385 ft 325 kts 220°
2026-05-04 18:30 -23.16354 -43.23502 13173 ft 330 kts 220°
2026-05-04 18:30 -23.18169 -43.25073 13951 ft 335 kts 221°
2026-05-04 18:31 -23.20000 -43.26660 14655 ft 339 kts 221°
2026-05-04 18:31 -23.21845 -43.28262 15396 ft 341 kts 221°
2026-05-04 18:31 -23.23704 -43.29883 16111 ft 344 kts 221°
2026-05-04 18:31 -23.25571 -43.31517 16825 ft 346 kts 221°
2026-05-04 18:32 -23.27455 -43.33166 17553 ft 348 kts 222°
2026-05-04 18:32 -23.29324 -43.34803 18278 ft 351 kts 222°
2026-05-04 18:32 -23.31206 -43.36500 18912 ft 352 kts 226°
2026-05-04 18:32 -23.32328 -43.37816 19324 ft 351 kts 234°
2026-05-04 18:33 -23.33985 -43.40828 20135 ft 353 kts 248°
2026-05-04 18:33 -23.34724 -43.43377 20755 ft 355 kts 256°
2026-05-04 18:33 -23.35324 -43.45969 21379 ft 358 kts 256°
2026-05-04 18:33 -23.35939 -43.48603 21995 ft 361 kts 256°
2026-05-04 18:34 -23.36564 -43.51262 22607 ft 364 kts 255°
2026-05-04 18:34 -23.37194 -43.53938 23216 ft 367 kts 255°
2026-05-04 18:34 -23.37829 -43.56632 23818 ft 370 kts 255°
2026-05-04 18:34 -23.38470 -43.59360 24329 ft 372 kts 255°
2026-05-04 18:35 -23.39111 -43.62099 24843 ft 375 kts 255°
2026-05-04 18:35 -23.39756 -43.64854 25339 ft 377 kts 255°
2026-05-04 18:35 -23.40403 -43.67625 25817 ft 379 kts 255°
2026-05-04 18:35 -23.40842 -43.69506 26142 ft 381 kts 255°
2026-05-04 18:36 -23.41495 -43.72307 26623 ft 383 kts 255°
2026-05-04 18:36 -23.42150 -43.75125 27089 ft 385 kts 255°
2026-05-04 18:36 -23.42800 -43.77920 27557 ft 387 kts 255°
2026-05-04 18:36 -23.43461 -43.80769 28026 ft 389 kts 255°
2026-05-04 18:37 -23.44122 -43.83630 28480 ft 391 kts 255°
2026-05-04 18:37 -23.44789 -43.86514 28909 ft 394 kts 255°
2026-05-04 18:37 -23.45460 -43.89413 29345 ft 396 kts 255°
2026-05-04 18:37 -23.46135 -43.92333 29787 ft 399 kts 255°
2026-05-04 18:38 -23.46813 -43.95268 30219 ft 401 kts 255°
2026-05-04 18:38 -23.47498 -43.98221 30585 ft 403 kts 255°
2026-05-04 18:38 -23.48186 -44.01184 30946 ft 404 kts 256°
2026-05-04 18:38 -23.48874 -44.04158 31309 ft 406 kts 256°
2026-05-04 18:39 -23.49563 -44.07147 31665 ft 407 kts 256°
2026-05-04 18:39 -23.50253 -44.10142 32096 ft 407 kts 256°
2026-05-04 18:39 -23.50937 -44.13118 32634 ft 404 kts 256°
2026-05-04 18:39 -23.51619 -44.16075 33174 ft 401 kts 256°
2026-05-04 18:40 -23.52295 -44.19010 33717 ft 398 kts 256°
2026-05-04 18:40 -23.52967 -44.21935 34059 ft 397 kts 256°
2026-05-04 18:40 -23.53634 -44.24833 34123 ft 390 kts 256°
2026-05-04 18:40 -23.54279 -44.27639 34130 ft 375 kts 257°
2026-05-04 18:41 -23.54901 -44.30371 34130 ft 369 kts 257°
2026-05-04 18:41 -23.56128 -44.35766 34125 ft 366 kts 257°
2026-05-04 18:41 -23.56743 -44.38462 33872 ft 366 kts 257°
2026-05-04 18:42 -23.57358 -44.41158 33607 ft 367 kts 256°
2026-05-04 18:42 -23.57975 -44.43859 33344 ft 368 kts 256°
2026-05-04 18:42 -23.58595 -44.46569 33085 ft 369 kts 256°
2026-05-04 18:42 -23.59213 -44.49278 32829 ft 368 kts 256°
2026-05-04 18:43 -23.59829 -44.51988 32577 ft 368 kts 256°
2026-05-04 18:43 -23.60440 -44.54690 32324 ft 367 kts 256°
2026-05-04 18:43 -23.61051 -44.57389 32092 ft 366 kts 256°
2026-05-04 18:43 -23.61662 -44.60084 31840 ft 366 kts 256°
2026-05-04 18:44 -23.62272 -44.62770 31589 ft 365 kts 256°
2026-05-04 18:44 -23.62675 -44.64547 31428 ft 364 kts 256°
2026-05-04 18:44 -23.63486 -44.68126 31109 ft 363 kts 256°
2026-05-04 18:44 -23.64087 -44.70789 30864 ft 359 kts 256°
2026-05-04 18:45 -23.64678 -44.73412 30490 ft 355 kts 256°
2026-05-04 18:45 -23.65264 -44.76012 30073 ft 352 kts 256°
2026-05-04 18:45 -23.65847 -44.78598 29670 ft 349 kts 256°
2026-05-04 18:45 -23.66423 -44.81153 29278 ft 345 kts 256°
2026-05-04 18:46 -23.66994 -44.83679 28904 ft 341 kts 256°
2026-05-04 18:46 -23.67557 -44.86168 28551 ft 336 kts 256°
2026-05-04 18:46 -23.68112 -44.88630 28189 ft 331 kts 256°
2026-05-04 18:46 -23.68649 -44.91022 27831 ft 327 kts 256°
2026-05-04 18:47 -23.69185 -44.93415 27473 ft 323 kts 256°
2026-05-04 18:47 -23.69712 -44.95776 27122 ft 318 kts 256°
2026-05-04 18:47 -23.70234 -44.98114 26747 ft 316 kts 256°
2026-05-04 18:47 -23.70752 -45.00435 26381 ft 314 kts 256°
2026-05-04 18:48 -23.71267 -45.02744 26017 ft 313 kts 256°
2026-05-04 18:48 -23.71779 -45.05044 25630 ft 311 kts 256°
2026-05-04 18:48 -23.72291 -45.07336 25252 ft 310 kts 256°
2026-05-04 18:48 -23.72801 -45.09614 24867 ft 309 kts 256°
2026-05-04 18:49 -23.73310 -45.11886 24471 ft 308 kts 256°
2026-05-04 18:49 -23.73815 -45.14153 24074 ft 307 kts 256°
2026-05-04 18:49 -23.74315 -45.16411 23681 ft 306 kts 256°
2026-05-04 18:49 -23.74815 -45.18665 23241 ft 305 kts 256°
2026-05-04 18:50 -23.75315 -45.20904 22823 ft 303 kts 256°
2026-05-04 18:50 -23.75813 -45.23137 22398 ft 302 kts 256°
2026-05-04 18:50 -23.76308 -45.25363 21978 ft 301 kts 256°
2026-05-04 18:50 -23.76799 -45.27583 21573 ft 300 kts 256°
2026-05-04 18:51 -23.77290 -45.29798 21160 ft 300 kts 256°
2026-05-04 18:51 -23.77781 -45.32012 20758 ft 300 kts 256°
2026-05-04 18:51 -23.78270 -45.34229 20355 ft 301 kts 256°
2026-05-04 18:51 -23.78758 -45.36450 19944 ft 302 kts 256°
2026-05-04 18:52 -23.79247 -45.38679 19537 ft 302 kts 256°
2026-05-04 18:52 -23.79696 -45.40918 19129 ft 302 kts 262°
2026-05-04 18:52 -23.79843 -45.43202 18862 ft 311 kts 266°
2026-05-04 18:52 -23.79961 -45.45572 18593 ft 314 kts 266°
2026-05-04 18:53 -23.80084 -45.47950 18310 ft 313 kts 266°
2026-05-04 18:53 -23.80207 -45.50320 18020 ft 312 kts 266°
2026-05-04 18:53 -23.80330 -45.52684 17746 ft 311 kts 266°
2026-05-04 18:53 -23.80454 -45.55034 17472 ft 310 kts 266°
2026-05-04 18:54 -23.80576 -45.57380 17203 ft 309 kts 266°
2026-05-04 18:54 -23.80698 -45.59718 16935 ft 308 kts 266°
2026-05-04 18:54 -23.80819 -45.62054 16662 ft 308 kts 266°
2026-05-04 18:54 -23.80937 -45.64377 16394 ft 306 kts 266°
2026-05-04 18:55 -23.81055 -45.66697 16125 ft 305 kts 266°
2026-05-04 18:55 -23.81287 -45.71302 15591 ft 302 kts 266°
2026-05-04 18:55 -23.81401 -45.73588 15328 ft 301 kts 266°
2026-05-04 18:56 -23.81516 -45.75867 15068 ft 300 kts 266°
2026-05-04 18:56 -23.81630 -45.78137 14805 ft 298 kts 266°
2026-05-04 18:56 -23.81742 -45.80351 14550 ft 297 kts 266°
2026-05-04 18:56 -23.81857 -45.82641 14287 ft 296 kts 266°
2026-05-04 18:57 -23.81966 -45.84876 14025 ft 294 kts 266°
2026-05-04 18:57 -23.82075 -45.87102 13752 ft 293 kts 266°
2026-05-04 18:57 -23.82186 -45.89321 13483 ft 292 kts 266°
2026-05-04 18:57 -23.82297 -45.91533 13232 ft 291 kts 266°
2026-05-04 18:58 -23.82408 -45.93742 12977 ft 291 kts 266°
2026-05-04 18:58 -23.82520 -45.95944 12723 ft 290 kts 266°
2026-05-04 18:58 -23.82630 -45.98142 12472 ft 289 kts 266°
2026-05-04 18:58 -23.82738 -46.00331 12219 ft 288 kts 266°
2026-05-04 18:59 -23.82842 -46.02515 11967 ft 288 kts 267°
2026-05-04 18:59 -23.82945 -46.04693 11716 ft 287 kts 267°
2026-05-04 18:59 -23.83049 -46.06863 11463 ft 286 kts 267°
2026-05-04 18:59 -23.83153 -46.09028 11219 ft 285 kts 267°
2026-05-04 19:00 -23.83255 -46.11189 10970 ft 285 kts 268°
2026-05-04 19:00 -23.83355 -46.13347 10723 ft 285 kts 268°
2026-05-04 19:00 -23.83453 -46.15498 10477 ft 283 kts 268°
2026-05-04 19:00 -23.83554 -46.17643 10233 ft 283 kts 268°
2026-05-04 19:01 -23.83656 -46.19786 9978 ft 282 kts 268°
2026-05-04 19:01 -23.83768 -46.21926 9712 ft 281 kts 267°
2026-05-04 19:01 -23.83910 -46.24051 9468 ft 280 kts 266°
2026-05-04 19:01 -23.84066 -46.26172 9209 ft 279 kts 266°
2026-05-04 19:02 -23.84223 -46.28276 8941 ft 278 kts 266°
2026-05-04 19:02 -23.84378 -46.30361 8571 ft 274 kts 266°
2026-05-04 19:02 -23.84528 -46.32442 8311 ft 272 kts 267°
2026-05-04 19:02 -23.84673 -46.34501 8083 ft 268 kts 266°
2026-05-04 19:03 -23.84806 -46.36499 7824 ft 261 kts 266°
2026-05-04 19:03 -23.84945 -46.38509 7605 ft 268 kts 266°
2026-05-04 19:03 -23.85094 -46.40544 7382 ft 269 kts 267°
2026-05-04 19:03 -23.85238 -46.42574 7154 ft 269 kts 269°
2026-05-04 19:04 -23.85136 -46.44551 6901 ft 259 kts 283°
2026-05-04 19:04 -23.84536 -46.46415 6700 ft 262 kts 297°
2026-05-04 19:04 -23.83520 -46.48064 6474 ft 262 kts 307°
2026-05-04 19:04 -23.82426 -46.49651 6238 ft 261 kts 307°
2026-05-04 19:05 -23.81339 -46.51236 6000 ft 261 kts 307°
2026-05-04 19:05 -23.80287 -46.52773 5781 ft 244 kts 307°
2026-05-04 19:05 -23.79204 -46.54118 5583 ft 227 kts 320°
2026-05-04 19:05 -23.77938 -46.55059 5394 ft 214 kts 327°
2026-05-04 19:06 -23.76710 -46.55907 5211 ft 204 kts 327°
2026-05-04 19:06 -23.75556 -46.56708 5087 ft 189 kts 327°
2026-05-04 19:06 -23.74457 -46.57471 4894 ft 183 kts 327°
2026-05-04 19:06 -23.73433 -46.58182 4726 ft 166 kts 327°
2026-05-04 19:07 -23.72511 -46.58823 4593 ft 147 kts 327°
2026-05-04 19:07 -23.71676 -46.59402 4476 ft 138 kts 328°
2026-05-04 19:07 -23.70874 -46.59956 4351 ft 135 kts 328°
2026-05-04 19:07 -23.70080 -46.60506 4221 ft 137 kts 328°
2026-05-04 19:08 -23.69284 -46.61059 4028 ft 134 kts 327°
2026-05-04 19:08 -23.68490 -46.61610 3842 ft 135 kts 328°
2026-05-04 19:08 -23.67698 -46.62158 3653 ft 136 kts 328°
2026-05-04 19:08 -23.66889 -46.62717 3472 ft 138 kts 328°
2026-05-04 19:09 -23.66073 -46.63282 3283 ft 139 kts 328°
2026-05-04 19:09 -23.65263 -46.63844 3102 ft 137 kts 327°
2026-05-04 19:09 -23.64476 -46.64389 2902 ft 134 kts 327°
2026-05-04 19:09 -23.63692 -46.64937 2699 ft 134 kts 327°
2026-05-04 19:10 -23.62952 -46.65450 2609 ft 113 kts 327°
2026-05-04 19:10 -23.62532 -46.65741 2605 ft 43 kts 327°
2026-05-04 19:10 -23.62296 -46.65904 2600 ft 26 kts 328°
2026-05-04 19:10 -23.62199 -46.66005 2599 ft 13 kts 268°
2026-05-04 19:11 -23.62250 -46.66042 2600 ft 7 kts 175°
2026-05-04 19:11 -23.62292 -46.66015 2600 ft 7 kts 148°
2026-05-04 19:11 -23.62335 -46.65986 2600 ft 7 kts 148°
2026-05-04 19:11 -23.62378 -46.65954 2601 ft 8 kts 146°
2026-05-04 19:12 -23.62423 -46.65922 2601 ft 8 kts 147°
2026-05-04 19:12 -23.62514 -46.65860 2602 ft 8 kts 148°
2026-05-04 19:12 -23.62561 -46.65843 2601 ft 7 kts 205°
2026-05-04 19:13 -23.62581 -46.65873 2601 ft 3 kts 238°
2026-05-04 19:13 -23.62591 -46.65891 2601 ft 2 kts 237°
2026-05-04 19:13 -23.62596 -46.65900 2601 ft 1 kts 237°
2026-05-04 19:13 -23.62599 -46.65905 2601 ft 0 kts 237°